Home   Weather   Asheville   Past weeks

Flag for USA Past Weather in Asheville, North Carolina, USA — Yesterday and Last 2 Weeks

Now
57 °F

Passing clouds.


Feels Like: 57 °F
Forecast: 51 / 80 °F
Wind: No wind

Location: Asheville Regional Airport

Current Time: Apr 26, 2017 at 2:12:54 am

Latest Report: Apr 26, 2017 at 1:33 am


Visibility: 10 mi

Pressure: 29.82 "Hg (27.61 "Hg at 647m altitude)

Humidity: 83%

Dew Point: 52 °F

Location of AshevilleLocation

Past Weather in Asheville — Graph

°F

Asheville Temperature Yesterday

Maximum temperature yesterday: 72 °F (at 4:54 pm)
Minimum temperature yesterday: 53 °F (at 4:54 am)
Average temperature yesterday: 60 °F

High & Low Weather Summary for the Past Weeks

 TemperatureHumidityPressure
High78 °F (Apr 12, 4:54 pm)97% (Apr 21, 7:54 am)30.37 "Hg (Apr 21, 7:54 am)
Low45 °F (Apr 11, 5:54 am)16% (Apr 12, 2:54 pm)29.67 "Hg (Apr 25, 4:54 pm)
Average61 °F73%30.08 "Hg
* Reported Apr 11 1:54 am — Apr 26 1:03 am, Asheville, Weather by CustomWeather, © 2017

Note: Actual official high and low records may vary slightly from our data, if they occured in-between our weather recording intervals... More about our weather records

Advertising

Asheville Weather History for the Previous 24 Hours

Scroll right to see more
 ConditionsComfort  
Time TempWeatherWind HumidityBarometerVisibility
1:03 am
Wed, Apr 26
58 °FOvercast.No wind84%29.83 "Hg10 mi
12:54 am58 °FOvercast.No wind81%29.77 "Hg10 mi
11:54 pm
Tue, Apr 25
58 °FOvercast.3 mph81%29.77 "Hg10 mi
10:54 pm60 °FOvercast.3 mph72%29.77 "Hg10 mi
9:54 pm62 °FOvercast.7 mph67%29.76 "Hg10 mi
8:54 pm63 °FPassing clouds.10 mph65%29.75 "Hg10 mi
7:54 pm66 °FScattered clouds.14 mph56%29.72 "Hg10 mi
6:54 pm68 °FSunny.12 mph53%29.70 "Hg10 mi
5:54 pm72 °FPartly sunny.15 mph48%29.69 "Hg10 mi
4:54 pm72 °FSunny.14 mph46%29.67 "Hg10 mi
3:54 pm71 °FSunny.14 mph49%29.68 "Hg10 mi
2:54 pm71 °FSunny.13 mph47%29.69 "Hg10 mi
1:54 pm69 °FSunny.17 mph53%29.70 "Hg10 mi
12:54 pm67 °FSunny.12 mph57%29.71 "Hg10 mi
11:54 am65 °FSunny.16 mph61%29.72 "Hg10 mi
10:54 am62 °FPassing clouds.13 mph67%29.72 "Hg10 mi
10:34 am60 °FBroken clouds.13 mph72%29.77 "Hg10 mi
9:54 am58 °FPartly sunny.10 mph78%29.73 "Hg10 mi
9:34 am57 °FPartly sunny.13 mph83%29.77 "Hg10 mi
8:54 am55 °FMostly cloudy.13 mph87%29.74 "Hg10 mi
7:54 am54 °FLow clouds.7 mph90%29.72 "Hg2 mi
7:13 am54 °FCloudy.7 mph90%29.74 "Hg2 mi
7:05 am54 °FCloudy.9 mph90%29.73 "Hg3 mi
6:54 am54 °FMostly cloudy.8 mph90%29.69 "Hg3 mi
6:14 am54 °FMostly cloudy.8 mph90%29.71 "Hg3 mi
5:54 am54 °FMostly cloudy.6 mph90%29.68 "Hg3 mi
5:27 am54 °FMostly cloudy.5 mph90%29.72 "Hg3 mi
4:54 am53 °FLow clouds.No wind93%29.69 "Hg3 mi
4:23 am54 °FPassing clouds.No wind90%29.72 "Hg3 mi
3:54 am54 °FPartly cloudy.No wind93%29.68 "Hg3 mi
3:38 am54 °FLight rain. Overcast.No wind93%29.72 "Hg3 mi
3:01 am55 °FOvercast.3 mph90%29.72 "Hg3 mi
2:26 am54 °FLight rain. Fog.No wind93%29.73 "Hg3 mi
Weather by CustomWeather, © 2017

See weather overviewHow to use our weather pages